GSAT0215 (GALILEO 19)

Last updated on Fri Jun 19 2026 20:04:05 GMT+0000 (Coordinated Universal Time)

1 43055U 17079A 26169.77531633 .00000028 00000+0 00000+0 0 9998 2 43055 55.0730 221.4630 0003228 264.0800 95.9660 1.70474593 53016
UTC large
Height (km)
Speed (km/s)
/
Latitude / Longitude
Inclination (degrees)
Orbital Period (minutes)
Azimuth
Elevation
Range (km)
Doppler Factor

Next 0 passes for location: London (51.5072 / 0.1276)

No passes found over London.
GSAT0215 (GALILEO 19)